Regional Weather Roundup
Issued by NWS

Home | Current Version | Previous Version | Graphics & Text | Print | Product List | Glossary On
Versions: 1 2 3 4 5 6 7 8 9 10 11 12 13 14 15 16 17 18 19 20 21 22 23 24 25 26 27 28
000
ASUS45 KSLC 231510
RWRUT

UTAH REGIONAL WEATHER ROUNDUP
NATIONAL WEATHER SERVICE SALT LAKE CITY UT
900 AM MDT MON APR 23 2018

UTZ001>011-023>025-231600-

NORTHERN UTAH

CITY           SKY/WX    TMP DP  RH WIND       PRES   REMARKS
BRIGHAM CITY   SUNNY     49  42  78 CALM      30.15R
DUGWAY         MOSUNNY   57  36  45 W3        30.15R
HILL AFB       NOT AVBL
LOGAN          SUNNY     53  42  66 CALM      30.14R
OGDEN          SUNNY     52  43  71 N3        30.13R
SALT LAKE CITY MOSUNNY   58  43  57 N5        30.13R
TOOELE VALLEY  SUNNY     52  45  76 CALM      30.15R
WENDOVER       SUNNY     57  26  30 S9        30.16R
HEBER CITY       N/A     52  34  50 CALM      30.13S
WEST JORDAN    MOSUNNY   56  43  60 NW6       30.13R

$$

UTZ011>015-024>027-231600-

CENTRAL/NORTHEAST UTAH

CITY           SKY/WX    TMP DP  RH WIND       PRES   REMARKS
PROVO AIRPORT  PTSUNNY   55  42  61 W5        30.14R
MOAB/CANYONLAN SUNNY     62  31  31 S3        30.04R
DELTA          SUNNY     55  37  50 N9        30.14R
PRICE          SUNNY     58  27  30 SW3       30.09R
ROOSEVELT      SUNNY     59  32  36 CALM      30.08R
VERNAL         SUNNY     59  35  40 E5        30.06R

$$

UTZ013>016-019>022-027-231600-

SOUTHERN UTAH

CITY           SKY/WX    TMP DP  RH WIND       PRES   REMARKS
BRYCE CANYON   SUNNY     55  23  28 W6        30.22R
CEDAR CITY     SUNNY     56  34  43 NE6       30.12R
MILFORD        SUNNY     57  37  47 N18       30.12R
ST GEORGE      PTSUNNY   61  26  26 CALM      30.05R
HANKSVILLE     SUNNY     55  21  26 CALM      30.07R
BLANDING         N/A     57  22  25 CALM      30.23R

$$

REGIONAL REPORTS     COLORADO/ARIZONA

CITY           SKY/WX    TMP DP  RH WIND       PRES   REMARKS
CRAIG, CO      SUNNY     52  38  58 CALM      30.09F
GRAND JUNCTION SUNNY     58  34  40 SE10      30.07S
RIFLE, CO      MOSUNNY   48  39  71 CALM      30.13S
MONTROSE, CO   SUNNY     57  31  37 SE5       30.14S
CORTEZ, CO     SUNNY     54  26  34 CALM      30.16F
COLORADO CITY    N/A     59  28  31 CALM      30.15R
PAGE, AZ       SUNNY     63  24  22 CALM      30.08R
GRAND CANYON   SUNNY     57  22  25 CALM      30.22R
KINGMAN, AZ    SUNNY     70  22  16 CALM      30.05R
FLAGSTAFF, AZ  SUNNY     56  24  29 S3        30.24R

$$

REGIONAL REPORTS    NEVADA/IDAHO/WYOMING

CITY           SKY/WX    TMP DP  RH WIND       PRES   REMARKS
LAS VEGAS, NV  SUNNY     73  26  17 NW5       29.96R
ELY, NY        MOSUNNY   49  28  44 S5        30.20R
ELKO, NV       SUNNY     44  32  62 SW3       30.21R
POCATELLO, ID  MOSUNNY   42  30  62 SW25      30.17R
BURLEY, ID     SUNNY     42  25  50 W24G35    30.17R
FORT BRIDGER,  PTSUNNY   40  39  99 SW15      30.19F WCI  31
EVANSTON, WY   MOSUNNY   40  38  93 S13       30.17R WCI  32
ROCK SPRINGS,  PTSUNNY   46  27  47 W22G32    30.17R
KEMMERER, WY   PTSUNNY   37  34  87 SW10      30.16R WCI  30

$$




USA.gov is the U.S. government's official web portal to all federal, state and local government web resources and services.